Weather in Misano Adriatico

Italy     43°58′05″N   12°41′44″E
temp.,
°C
wind,
m/s
gust,
m/s
humid.,
%
clouds,
%
prec.,
mm/h
press.,
hPa
HPBL,
m
7 may, fri
fri723:00+15s577094 0.0 1011113
02:00+15sse5676100 0.0 1010185
05:00+14s697671 0.0 1009309
08:00+16s576890 0.0 1009204
11:00+20wsw71159100 0.0 1010412
14:00+20sw91358100 0.0 1009435
17:00+20wsw712575 0.0 1009351
20:00+19wsw71162100 0.0 1010256
8 may, sat
sat823:00+17ssw12698 0.0 101129
02:00+15ne6785100 0.0 1014318
05:00+15ene568493 0.0 1015460
08:00+15e9975100 0.0 1018718
11:00+14e7778100 0.1 1020703
14:00+14ne3368100 0.1 1021695
17:00+14nne3265100 0.0 1020409
20:00+14ene11625 0.0 1020142
9 may, sun
sun923:00+13ssw116945 0.0 102179
02:00+13wsw11725 0.0 102183
05:00+13sw21760 0.0 102087
08:00+13w11730 0.0 1021146
11:00+14nne21744 0.0 1021250
14:00+15ene44691 0.0 1020317
17:00+17e55655 0.0 1019352
20:00+16ese467729 0.0 1018186
10 may, mon
mon1023:00+15sse338230 0.0 101895
02:00+16wsw1183100 0.0 101829
05:00+16s11840 0.0 101719
08:00+16se11810 0.0 101831
11:00+17nne32787 0.0 1018282
14:00+16ene4588100 0.0 1017263
17:00+19ese787541 0.0 1015269
20:00+18se5682100 0.0 101557
11 may, tue
tue1123:00+18sse3378100 0.0 101525
02:00+18wsw11695 0.0 101412
05:00+16sw22665 0.0 101320
08:00+17wsw117138 0.0 101430
11:00+17n4469100 0.0 1015211
14:00+17ene457793 0.0 1013213
17:00+17ene1281100 1.3 101176
20:00+17se3381100 1.6 100977